Location: Zagreb
(45.8000°N, 16.0000°E)
Time: 15:34:18
(UTC+02:00)

Vanguard 1 - Pass Details

Date: 14 August 2022
Orbit: 649 x 3832 km, 34.2° (Epoch: 25 September)

Event Time Altitude Azimuth Distance (km) Brightness Sun altitude
Rises 11:50:02 0° 281° (W) 7,792 14.4 55.2°
Reaches altitude 10° 11:57:17 10° 269° (W) 6,921 14.3 55.8°
Maximum altitude 12:11:57 22° 230° (SW) 5,774 14.4 56.9°
Drops below altitude 10° 12:24:58 10° 189° (S) 5,996 14.7 57.6°
Sets 12:30:41 0° 174° (S) 6,527 14.7 57.9°
